Regional Weather Roundup
Issued by NWS

Home | Current Version | Previous Version | Graphics & Text | Print | Product List | Glossary On
Versions: 1 2 3 4 5 6 7 8 9 10 11 12 13 14 15 16 17 18 19 20 21 22 23 24 25 26 27 28 29 30 31 32 33 34 35 36 37 38 39 40 41 42 43 44 45 46 47 48 49 50
000
ASUS43 KLOT 222003
RWRIL

ILLINOIS REGIONAL WEATHER ROUNDUP
NATIONAL WEATHER SERVICE CHICAGO/ROMEOVILLE IL
300 PM CDT SUN APR 22 2018

NOTE: "FAIR" INDICATES FEW OR NO CLOUDS BELOW 12,000 FEET WITH NO
SIGNIFICANT WEATHER AND/OR OBSTRUCTIONS TO VISIBILITY.

* THESE STATIONS ARE NOT UNDER NWS QUALITY CONTROL. THEY ALSO MAY NOT
  REPORT WEATHER SUCH AS PRECIPITATION OR FOG.

ILZ001-002-007-009-015-016-024-222100-
NORTHWEST ILLINOIS

CITY           SKY/WX    TMP DP  RH WIND       PRES   REMARKS
MOLINE         FAIR      66  26  22 E16       30.20F
STERLING*      FAIR      66  30  26 E20G25    30.22F
SAVANNA*       FAIR      66  29  25 E14G21    30.24F
$$

ILZ003-004-008-010-011-017-018-222100-
NORTH CENTRAL ILLINOIS

CITY           SKY/WX    TMP DP  RH WIND       PRES   REMARKS
ROCKFORD       PTSUNNY   62  25  24 NE14G22   30.28F
FREEPORT*      FAIR      63  29  27 E12G22    30.28F
ROCHELLE*      FAIR      62  30  30 E15G22    30.26F
DE KALB*       FAIR      63  28  26 E13G24    30.27F
PERU*          FAIR      68  31  24 E18       30.22F
$$

ILZ005-006-012>014-019>023-222100-
NORTHEAST ILLINOIS

CITY           SKY/WX    TMP DP  RH WIND       PRES   REMARKS
CHICAGO-OHARE  PTSUNNY   60  26  27 NE13      30.28F
CHICAGO-MIDWAY PTSUNNY   60  23  24 NE17      30.28F
AURORA         FAIR      64  23  21 NE20G26   30.25F
LANSING*       FAIR      59  33  36 NE13      30.26F
JOLIET*        FAIR      65  27  24 NE15G22   30.24F
WAUKEGAN       NOT AVBL
DUPAGE AIRPORT FAIR      62  24  23 E17G25    30.27F
KANKAKEE*      FAIR      68  24  18 E14G23    30.22F
WHEELING       FAIR      59  26  28 NE14      30.31F
MORRIS*        FAIR      65  25  21 E12G18    30.22F
ROMEOVILLE*    FAIR      63  30  28 NE16G23   30.25F
NORTHERLY ISL    N/A     50  33  52 N9          N/A
$$

LMZ740>746-222100-
SOUTHERN LAKE MICHIGAN

STATION/POSITION SKY/WX   TEMP    WIND        PRES    VSBY  WAVE
                          AIR SEA DIR/SP/G                  HT/PER
                          (F)     (DEG/KT/KT) (MB)    (MI)  (FT/S)
HARRISON CRIB              42     360/ 15/ 15   N/A
BURNHAM HARBOR             50      20/  8/ 13   N/A
CALUMET HARBOR             48     360/ 12/ 16 1025.2F
BURNS HARBOR               46      60/  9/ 12 1025.7F
MICHIGAN CITY              44      10/ 15/ 15   N/A
$$

ILZ025>027-034>036-040-047-049-050-058-095>099-222100-
WEST-CENTRAL ILLINOIS

CITY           SKY/WX    TMP DP  RH WIND       PRES   REMARKS
QUINCY         CLOUDY    62  36  37 E18G26    30.12F
GALESBURG*     PTSUNNY   69  24  18 E14G20    30.20F
MACOMB*        CLOUDY    65  31  27 E16       30.19F
JACKSONVILLE*  CLOUDY    64  30  28 NE22      30.12F
PITTSFIELD*    CLOUDY    62  35  37 NE14G22   30.12F
$$

ILZ028>032-037-038-041>044-048-051>054-059>061-222100-
CENTRAL ILLINOIS

CITY           SKY/WX    TMP DP  RH WIND       PRES   REMARKS
PONTIAC        FAIR      67  20  16 E17G25    30.22F
BLOOMINGTON    CLOUDY    65  23  20 E23       30.20F
DECATUR        FAIR      67  30  25 E21       30.13F
PEORIA         CLOUDY    63  20  19 E15G25    30.20F
LACON*         PTSUNNY   66  25  21 E15G21    30.21F
LINCOLN*       FAIR      68  29  23 NE21      30.16F
SPRINGFIELD    CLOUDY    70  32  24 E21G28    30.12F
TAYLORVILLE    CLOUDY    66  31  27 E17G25    30.11F
$$

ILZ033-039-045-046-055>057-062-063-222100-
EAST-CENTRAL ILLINOIS

CITY           SKY/WX    TMP DP  RH WIND       PRES   REMARKS
CHAMPAIGN      FAIR      68  29  23 NE22      30.16F
DANVILLE*      FAIR      65  29  26 E17       30.17F
RANTOUL*       FAIR      66  28  24 NE20G25   30.19F
MATTOON        FAIR      69  37  30 E16G24    30.12F
PARIS*         FAIR      69  33  27 E14G20    30.16F
$$

ILZ079-100>102-222100-
SOUTHWEST ILLINOIS

CITY           SKY/WX    TMP DP  RH WIND       PRES   REMARKS
ALTON          CLOUDY    61  41  48 NE12      30.09F
BELLEVILLE     CLOUDY    57  44  60 E9        30.06F
CAHOKIA*       LGT RAIN  57  42  57 E10       30.07F
SPARTA*        LGT RAIN  54  50  87 NE9       30.06F
$$

ILZ064>066-069>071-074>076-080>082-084>086-088>090-092>094-222100-
SOUTH-CENTRAL ILLINOIS

CITY           SKY/WX    TMP DP  RH WIND       PRES   REMARKS
CARBONDALE     LGT RAIN  55  49  80 E8        30.04F
CAIRO*         RAIN      55  54  99 E13       30.00F
EFFINGHAM*     FAIR      67  41  39 E13       30.11F
MARION         LGT RAIN  55  50  82 NE9       30.06F
MT. VERNON       N/A     65  45  48 NE10      30.06F
CENTRALIA*     CLOUDY    64  44  46 NE9       30.06F
SALEM*         CLOUDY    65  40  39 NE8       30.08F
METROPOLIS*    LGT RAIN  57  56  95 E8        30.02F
$$

ILZ067-068-072-073-078-083-087-091-222100-
SOUTHEAST ILLINOIS

CITY           SKY/WX    TMP DP  RH WIND       PRES   REMARKS
LAWRENCEVILLE  FAIR      72  39  30 E15       30.11F
FLORA*         FAIR      68  42  39 E10       30.09F
FAIRFIELD*     CLOUDY    67  44  42 E8        30.06F
HARRISBURG*    LGT RAIN  58  55  88 E9        30.07F
ROBINSON*      FAIR      68  41  37 E14       30.13F
CARMI*         CLOUDY    66  51  59 SE12      30.07F
$$

ABBREVIATIONS USED IN REMARKS
   TC - TEMPERATURE IN CELSIUS
  WCI - WIND CHILL INDEX
   HX - HEAT INDEX
  VSB - VISIBILITY
$$





USA.gov is the U.S. government's official web portal to all federal, state and local government web resources and services.